Location: ???????
(54.8006°N, 38.8595°E)
Time: 06:27:58
(UTC+00:00)

Daily predictions for brighter satellites

Satellite Brightness Start Highest point End
(mag) Time Altitude Azimuth Time Altitude Azimuth Time Altitude Azimuth
SeaSat 1 3.5 18:56:42 10° S 19:01:15 38° WSW 19:05:51 10° NW
Cosmos 2219 Rocket 2.3 18:57:05 10° NW 19:02:47 82° WSW 19:08:28 10° SSE
Cosmos 968 Rocket 3.6 18:57:56 10° S 19:02:59 57° ESE 19:08:06 10° NNE
SJ 16-02 1.8 18:59:17 10° S 19:03:22 42° ESE 19:07:29 10° NE
Cosmos 1570 Rocket 4.4 18:58:27 10° NNW 19:03:46 61° ENE 19:09:04 10° SE
COSMOS 2428 3.0 19:02:38 10° NNW 19:08:19 64° NE 19:14:00 10° SE
USA 234 3.4 19:01:59 10° ENE 19:08:20 50° SE 19:14:39 10° SW
Orbus 7S? 3.3 19:04:36 10° W 19:08:45 69° NNW 19:11:29 10° ENE
Cosmos 1707 Rocket 3.6 19:06:11 10° S 19:10:38 89° WSW 19:15:06 10° NNE
SPOT 3 Rocket 4.2 19:07:44 10° S 19:12:45 52° W 19:17:50 10° NNW
Cosmos 1814 Rocket 4.4 19:08:29 10° NNW 19:13:43 61° WSW 19:18:57 10° S
Cosmos 1400 Rocket 3.9 19:10:45 10° SW 19:14:28 45° WNW 19:18:11 10° N
Cosmos 1741 Rocket 4.1 19:09:17 10° SSW 19:14:34 87° ESE 19:19:56 10° NNE
Meteor 1-21 4.3 19:09:12 10° S 19:15:00 83° E 19:20:52 10° NNE
ATLAS CENTAUR R/B 0.9 19:14:42 10° SW 19:18:12 69° SE 19:21:52 10° NE
Timation 1 Rocket 4.5 19:12:56 10° SW 19:18:55 83° NW 19:24:56 10° NE
Cosmos 1408 4.3 19:23:48 10° ESE 19:25:19 13° E 19:26:50 10° NE
Cosmos 1733 Rocket 4.1 19:21:33 10° NNW 19:25:43 41° W 19:29:52 10° SSW
NOSS 5 (C) 4.2 19:24:02 10° NW 19:27:18 71° SW 19:30:22 11° SE
Cosmos 1356 Rocket 4.0 19:23:10 10° SSW 19:27:19 61° WNW 19:31:31 10° N
Cosmos 2360 Rocket 3.4 19:23:05 10° NW 19:28:10 34° WSW 19:33:13 10° S
Cosmos 1953 2.2 19:24:41 10° NNW 19:28:34 87° WSW 19:32:21 10° S
Okean 1-7 3.1 19:25:55 10° S 19:30:11 65° E 19:34:29 10° NNE
Terra 3.5 19:26:11 10° SSW 19:30:14 28° W 19:34:20 10° NNW
Okean 2 3.4 19:27:27 10° S 19:31:24 64° E 19:35:25 10° NNE
BlueWalker 3 3.3 19:31:45 10° S 19:34:20 18° SE 19:36:54 10° E
ARIANE 5 R/B 2.8 19:30:16 10° SSE 19:34:30 63° ENE 19:38:49 10° N
Cosmos 1315 Rocket 2.8 19:31:33 10° S 19:35:30 70° ESE 19:39:30 10° NNE
Cosmos 2208 Rocket 4.0 19:34:25 10° NNW 19:39:40 82° ENE 19:44:38 11° SSE
Nadezhda 1 Rocket 4.1 19:33:27 10° N 19:39:47 71° ENE 19:45:48 11° SSE
SL-16 R/B 4.4 19:37:29 10° WNW 19:40:45 16° W 19:44:01 10° SW
Cosmos 1908 Rocket 3.6 19:37:00 10° NNW 19:41:21 77° W 19:45:37 10° S
Cosmos 1455 2.2 19:40:19 10° NNW 19:43:48 64° W 19:47:09 11° S
Cosmos 1782 Rocket 3.7 19:40:03 10° N 19:44:23 66° ENE 19:48:19 12° SSE
GP-B 3.2 19:40:22 10° N 19:44:47 64° E 19:48:54 11° S
Cosmos 2333 Rocket 3.7 19:42:31 10° NW 19:47:20 28° WSW 19:52:09 10° SSW
SL-27 R/B 3.7 19:48:01 10° SW 19:50:35 32° WNW 19:53:10 10° N
Aureole 3 4.4 19:47:16 10° SSW 19:51:29 58° WNW 19:56:48 10° N
ATLAS 2AS CENTAUR R/B 3.9 19:48:59 10° WNW 19:54:36 28° WSW 20:00:04 10° S
SL-16 R/B 3.8 19:53:10 10° NNW 19:58:16 32° NE 20:03:21 10° E
GENESIS II 4.5 19:56:19 10° SSW 19:59:45 40° SE 20:03:11 10° ENE
Cosmos 1300 Rocket 3.5 19:55:45 10° N 20:00:05 78° E 20:03:50 14° SSE
COSMOS 2455 3.7 19:55:26 11° S 20:00:30 33° ESE 20:05:48 10° NE
USA 281 3.3 19:56:48 12° SSE 20:03:01 73° WSW 20:09:39 10° NNW
Cosmos 1833 4.5 19:58:53 10° SW 20:04:31 73° NW 20:10:10 10° NNE
Cosmos 2237 Rocket 2.4 19:59:07 10° NNW 20:04:49 70° NE 20:10:27 10° SE
Landsat 5 4.3 20:01:21 10° N 20:05:13 48° WNW 20:09:11 10° SW
Cosmos 1703 4.4 20:03:35 13° SE 20:06:11 27° E 20:09:21 10° NNE
Cosmos 2322 4.3 20:04:06 10° NW 20:09:33 49° WSW 20:14:26 13° S
NOSS 0 Rocket 4.0 20:05:23 10° NW 20:11:38 75° WSW 20:17:15 13° SSE
Spot 4 3.9 20:08:52 13° SSE 20:13:06 75° ENE 20:17:56 10° NNW
Cosmos 2227 Rocket 3.9 20:11:36 10° SE 20:15:07 17° E 20:18:38 10° ENE
Cosmos 2098 Rocket 4.4 20:08:42 10° N 20:15:14 59° ENE 20:21:01 13° SSE
Cosmos 1486 Rocket 4.5 20:12:04 13° S 20:16:24 44° ESE 20:21:20 10° NE
Meteor 1-4 Rocket 4.1 20:14:14 10° SW 20:16:49 26° WNW 20:19:27 10° N
Cosmos 1980 3.8 20:12:32 10° NNW 20:18:15 86° ENE 20:23:30 12° SSE
Okean 2 Rocket 4.2 20:14:41 10° N 20:18:49 35° ENE 20:22:48 11° SE
Cosmos 1242 Rocket 2.4 20:16:40 11° SSW 20:19:14 54° WNW 20:21:57 10° N
Cosmos 1825 4.3 20:20:23 10° ESE 20:22:06 13° E 20:23:50 10° NE
Meteor 1-24 Rocket 4.4 20:18:14 14° SSE 20:22:56 43° E 20:28:11 10° NNE
BREEZE-M DEB (TANK) 1.5 20:20:10 10° W 20:24:10 60° S 20:26:14 10° ESE
ALOS 2 2.8 20:20:31 14° SSE 20:24:13 68° ENE 20:28:37 10° N
H-2A R/B 2.6 20:22:25 15° S 20:25:57 77° WSW 20:30:12 10° NNW
Cosmos 1703 Rocket 4.1 20:22:51 10° SSW 20:27:15 58° WNW 20:31:40 10° N
EXPRESS MD2 3.3 20:26:39 10° WSW 20:28:21 21° SSW 20:28:21 21° SSW
Cosmos 2297 Rocket 2.9 20:30:07 14° S 20:34:25 38° ESE 20:39:36 10° NE
SL-4 R/B 2.9 20:31:28 10° W 20:34:58 30° SSW 20:37:39 15° SSE
Cosmos 1709 Rocket 4.1 20:30:06 13° S 20:35:52 76° E 20:42:13 10° NNE
SJ 16-02 3.1 20:37:57 10° WSW 20:41:50 32° NW 20:45:46 10° NNE
Cosmos 2219 Rocket 4.1 20:42:09 10° WNW 20:45:55 18° W 20:49:40 10° SW
Sich 1 Rocket 3.9 20:41:42 10° N 20:46:04 58° ENE 20:49:36 15° SSE
CZ-4C R/B 2.3 20:43:51 13° SSW 20:47:46 45° SE 20:53:20 10° NE
Cosmos 2242 Rocket 3.7 20:46:03 14° SSW 20:49:59 83° W 20:54:37 10° N
USA 234 3.3 20:45:09 10° ENE 20:51:44 88° NNW 20:58:18 10° WSW
COSMOS 2428 3.9 20:47:18 10° NW 20:52:15 31° WSW 20:56:33 13° SSW
CENTAUR R/B 3.8 20:49:56 14° SSE 20:53:35 24° ESE 20:58:53 10° ENE
NOSS 8 (E) 4.3 20:50:07 10° SW 20:53:44 64° SE 20:56:43 10° NE
ATLAS CENTAUR R/B 3.3 20:52:59 10° W 20:56:10 29° NNW 20:59:28 10° NE
Cosmos 1408 2.9 20:55:18 14° SW 20:57:41 44° WNW 21:00:36 10° N
Meteor 2-5 Rocket 3.8 20:58:01 15° S 21:03:05 81° E 21:08:55 10° NNE
Cosmos 2263 Rocket 4.0 21:02:22 10° SE 21:05:43 16° E 21:09:04 10° ENE
Cosmos 1818 4.3 21:00:57 10° NW 21:06:24 57° NE 21:11:48 10° ESE
Cosmos 405 Rocket 2.9 21:05:29 10° NNW 21:09:11 57° W 21:11:47 18° S
ARIANE 5 R/B 4.5 21:08:05 10° SW 21:11:18 20° W 21:14:33 10° NW
BlueWalker 3 2.0 21:08:17 10° WSW 21:11:54 49° SSE 21:15:32 10° E
Okean 1 Rocket 3.2 21:10:31 10° N 21:14:53 71° ENE 21:18:20 16° SSE
Cosmos 371 Rocket 3.4 21:15:10 11° SSW 21:19:46 77° WNW 21:24:38 10° NNE
Cosmos 2084 Rocket 3.8 21:20:54 17° SSW 21:23:54 43° SE 21:27:48 10° ENE
PSLV R/B 3.5 21:22:51 10° NNE 21:27:06 80° ESE 21:30:16 17° SSW
Cosmos 1538 Rocket 4.0 21:24:30 10° NNW 21:29:44 89° SW 21:34:29 13° SSE
Cosmos 1777 Rocket 4.0 21:25:44 14° SSW 21:30:20 85° ESE 21:35:39 10° NNE
NOSS 8 (H) 4.2 21:26:54 10° SW 21:30:21 82° NW 21:33:16 10° NE
H-2A R/B 2.2 21:26:55 10° NNE 21:31:09 59° ESE 21:34:11 18° S
Cosmos 1503 Rocket 4.1 21:26:53 12° SSW 21:31:50 82° WNW 21:37:09 10° NNE
Cosmos 1892 2.4 21:31:59 19° S 21:34:22 86° ESE 21:37:55 10° NNE
Cosmos 2181 Rocket 4.4 21:31:02 10° NNW 21:37:04 55° W 21:42:03 15° SSW
SL-16 R/B 2.2 21:37:14 10° NW 21:42:57 77° WSW 21:48:23 11° SSE
Cosmos 1975 Rocket 4.4 21:39:37 11° SSE 21:43:08 30° E 21:46:58 10° NNE
NOSS 3-2 (A) 4.3 21:40:26 15° SSE 21:43:58 29° ESE 21:49:12 10° ENE
Helios 1A Rocket 4.0 21:42:00 10° SE 21:45:31 37° ENE 21:49:04 10° N
COSMOS 2455 3.1 21:40:03 10° SW 21:46:04 72° NW 21:52:08 10° NE
GEOS 3 Rocket 4.4 21:42:19 10° ENE 21:47:01 34° ESE 21:50:33 16° S
Cosmos 2237 Rocket 3.4 21:43:43 10° NW 21:48:28 28° WSW 21:52:14 14° SSW
Cosmos 1455 Rocket 3.3 21:45:58 10° N 21:50:26 72° ENE 21:54:16 14° SSE
CZ-2D R/B 4.5 21:49:00 10° ENE 21:51:08 12° E 21:53:16 10° ESE
Cosmos 2074 Rocket 4.0 21:46:00 15° S 21:51:14 87° W 21:57:31 10° N
Orbus 7S? 2.4 21:49:22 10° WNW 21:52:05 76° SSW 21:55:09 10° ESE
Cosmos 1328 3.7 21:51:50 18° S 21:54:38 81° E 21:58:33 10° NNE
Cosmos 1825 2.2 21:53:24 18° SSW 21:55:50 60° WNW 21:59:14 10° N
Cosmos 1943 3.8 21:50:19 10° NNW 21:55:54 57° NE 22:01:25 10° SE
Okean 2 Rocket 4.1 21:52:47 10° NNW 21:56:50 35° W 22:00:06 15° SSW
Cosmos 923 Rocket 4.2 21:52:14 10° NNW 21:57:33 75° ENE 22:02:47 10° SSE
CZ-2C R/B 4.4 21:53:40 10° ESE 21:58:12 30° ENE 22:02:53 10° N
Cosmos 2227 Rocket 2.2 21:53:22 14° SSW 21:58:16 77° ESE 22:03:57 10° NE
Cosmos 1869 4.4 21:56:02 10° N 21:59:31 37° ENE 22:02:58 10° SE
ALOS 2 4.5 21:57:54 10° SW 22:01:01 19° W 22:04:11 10° NW
Cosmos 1674 Rocket 4.0 21:58:17 14° SSW 22:01:50 53° WNW 22:06:06 10° N
Cosmos 1378 Rocket 4.3 21:58:19 13° SW 22:01:59 46° WNW 22:06:16 10° N
Cosmos 292 Rocket 4.5 21:58:57 15° S 22:02:33 43° ESE 22:07:05 10° NE
Cosmos 1025 Rocket 3.0 22:00:50 17° S 22:04:10 79° E 22:08:30 10° NNE
Cosmos 1898 Rocket 4.2 22:07:10 14° S 22:11:15 42° ESE 22:16:07 10° NE
Cosmos 332 Rocket 4.1 22:09:31 12° SW 22:13:59 68° WNW 22:18:53 10° NNE
Aureole 1 Rocket 3.3 22:14:13 17° S 22:17:02 54° ESE 22:21:43 10° NNE
Cosmos 2297 Rocket 2.8 22:12:48 10° SW 22:18:20 54° NW 22:23:54 10° NNE
Nadezhda 3 Rocket 4.4 22:16:48 10° NNW 22:22:52 53° W 22:28:07 14° SSW
Cosmos 2219 3.3 22:18:32 14° SSW 22:23:19 70° ESE 22:28:55 10° NE
Cosmos 1606 2.8 22:21:50 10° N 22:25:25 67° ENE 22:28:47 11° SSE
Resurs 1-4 Rocket 3.9 22:21:40 10° NE 22:25:50 23° E 22:29:58 10° SE
Meteor 1-21 Rocket 4.3 22:23:19 14° SSW 22:28:19 87° WNW 22:34:01 10° NNE
Cosmos 2218 Rocket 4.5 22:28:39 10° S 22:34:42 56° E 22:40:43 10° NNE
USA 234 3.5 22:28:10 10° E 22:34:42 75° N 22:41:15 10° W
ATLAS CENTAUR R/B 4.1 22:32:11 10° NW 22:34:51 18° N 22:37:34 10° NE
CZ-4C R/B 2.8 22:31:08 10° WSW 22:36:04 57° NNW 22:42:27 10° NE
Cosmos 1680 Rocket 3.5 22:33:56 10° NNW 22:39:08 74° WSW 22:44:20 10° SSE
Cosmos 2366 rocket 4.4 22:33:06 11° S 22:39:10 62° E 22:45:18 10° NNE
Cosmos 2112 Rocket 4.0 22:36:58 10° NNW 22:42:11 80° WSW 22:47:21 10° SSE
BREEZE-M DEB (TANK) 3.6 22:38:47 10° W 22:42:52 19° SW 22:44:22 15° S
CENTAUR R/B 2.6 22:37:05 10° SW 22:43:05 83° SE 22:50:37 10° NE
COBE Rocket 4.5 22:43:18 10° NNE 22:48:22 56° E 22:53:27 10° S
Cosmos 2263 Rocket 2.2 22:43:42 13° SSW 22:48:44 76° ESE 22:54:19 10° NE
BlueWalker 3 1.8 22:46:10 10° W 22:49:54 71° S 22:53:38 10° E
Cosmos 1818 4.0 22:44:44 10° NW 22:49:55 43° WSW 22:55:03 10° SSE
Cosmos 990 Rocket 4.4 22:47:52 10° SW 22:52:55 56° WNW 22:58:00 10° NNE
Cosmos 2228 3.0 22:49:51 10° NNW 22:54:13 87° E 22:58:30 10° S
Cosmos 1544 Rocket 3.7 22:57:58 10° NNW 23:02:23 62° W 23:06:44 10° S
Cosmos 2084 Rocket 4.2 22:58:53 10° WSW 23:02:59 49° NNW 23:06:57 10° NE
H-2A R/B 3.8 23:03:10 10° N 23:06:31 23° WNW 23:09:49 10° WSW
Cosmos 1844 Rocket 4.1 23:03:18 10° SSE 23:08:02 29° ESE 23:12:47 10° NE
SL-8 Rocket 4.0 23:03:22 11° SSW 23:09:22 79° WNW 23:15:38 10° N
MOZ.5/SAFIR/RUBIN 5/SL-8 4.0 23:04:54 10° S 23:09:28 56° WSW 23:14:03 10° NNW
IDEFIX/ARIANE 42P 3.0 23:04:36 10° NNE 23:09:49 58° ESE 23:14:58 10° S
SL-16 R/B 3.3 23:06:46 10° SE 23:12:50 56° ENE 23:18:54 10° NNW
Cosmos 1048 Rocket 4.3 23:09:00 10° NNW 23:14:13 73° ENE 23:19:29 10° SE
Meteor 1-27 4.3 23:08:20 10° NNW 23:14:14 85° WSW 23:20:01 10° S
Cosmos 724 4.4 23:11:28 10° NW 23:17:18 86° NE 23:23:09 10° SE
Helios 1A Rocket 4.0 23:16:52 11° SSW 23:19:56 27° W 23:23:12 10° NW
Cosmos 1975 Rocket 3.9 23:16:42 10° SW 23:20:48 40° WNW 23:25:00 10° N
CZ-2C R/B 3.9 23:16:35 10° NNE 23:21:54 48° E 23:26:53 10° S
SL-19 R/B 4.5 23:20:46 10° N 23:23:41 39° WNW 23:26:22 10° SW
Cosmos 372 Rocket 4.2 23:19:23 10° SW 23:24:36 70° WNW 23:29:50 10° NNE
Cosmos 494 Rocket 4.0 23:19:36 10° NNW 23:24:50 76° WSW 23:30:05 10° SSE
Cosmos 1727 Rocket 4.1 23:18:55 10° NNW 23:25:16 81° W 23:31:37 10° S
Meteor 1-28 Rocket 4.1 23:21:58 10° SE 23:25:22 47° ENE 23:28:49 10° N
GEOS 3 Rocket 3.8 23:20:11 10° NE 23:25:23 72° NW 23:30:30 10° WSW
ALOS 4.1 23:21:49 10° NE 23:25:39 25° E 23:29:28 10° SSE
SL-16 R/B 3.9 23:22:38 10° WNW 23:26:10 17° W 23:29:41 10° SW
Cosmos 1461 2.7 23:23:27 10° SW 23:27:24 77° SE 23:31:16 10° NE
Cosmos 921 Rocket 2.9 23:25:25 10° NNW 23:29:41 76° WSW 23:33:52 10° SSE
Meteor 2-13 Rocket 4.5 23:24:44 10° NNW 23:30:48 73° W 23:36:53 10° S
Cosmos 1603 3.9 23:26:19 10° NW 23:31:58 57° WSW 23:37:33 10° SSE
CZ-2D R/B 2.5 23:26:56 10° NNE 23:32:16 63° ESE 23:37:31 10° S
NOSS 3-2 (A) 3.5 23:28:34 10° SW 23:34:04 80° NW 23:40:48 10° NE
Cosmos 1606 Rocket 3.6 23:33:19 10° NNW 23:37:48 89° W 23:42:14 10° S
CZ-2C R/B 2.8 23:32:53 10° S 23:38:09 63° WSW 23:43:35 10° NNW
Cosmos 1943 3.9 23:34:40 10° NW 23:39:43 35° WSW 23:44:44 10° S
FENGYUN 3A 4.3 23:35:47 10° NNE 23:41:04 53° E 23:46:19 10° S
NOSS 3-2 (C) 3.5 23:35:47 10° SW 23:41:11 71° SE 23:47:43 10° NE
Cosmos 2082 4.1 23:35:57 10° SW 23:41:30 58° NW 23:47:04 10° NNE
Cosmos 1867 4.3 23:36:33 10° SSW 23:41:44 46° SE 23:46:58 10° NE
Cosmos 2227 Rocket 3.7 23:37:50 10° W 23:42:53 32° NW 23:47:58 10° NNE
Cosmos 1937 Rocket 3.9 23:41:43 10° SW 23:46:54 57° WNW 23:52:05 10° NNE
Cosmos 1437 Rocket 2.7 23:43:20 10° SSW 23:47:09 88° ESE 23:50:56 10° NNE
ADEOS II 2.6 23:43:09 10° NNE 23:48:22 60° ESE 23:53:33 10° S
MSX 3.9 23:43:02 10° NNE 23:48:49 88° WNW 23:54:33 10° SSW
Cosmos 1536 Rocket 3.8 23:45:59 10° SSW 23:50:23 64° WNW 23:54:48 10° N
